QPF
0.00 0.00 0.00 0.00 0.00 0.00 0.00 0.00 0.00 0.00 0.00 0.00 0.00 0.00 0.00 0.00 0.00 0.00 0.00 0.00 0.00 0.00 0.00 0.00 0.00 0.00 0.00 0.00 0.00 0.00 0.00 0.00 0.00 0.00 0.00 0.01 0.08 0.12 0.10 0.08 0.15 0.16 0.03
0.00 0.00 0.00 0.00 0.00 0.00 0.00 0.00 0.00 0.00 0.00 0.00 0.00 0.00 0.00 0.00 0.00 0.00 0.00 0.00 0.00 0.00 0.00 0.00 0.00 0.00 0.00 0.00 0.00 0.00 0.00 0.00 0.00 0.00 0.00 0.00 0.00 0.00 0.01 0.02 0.05 0.11 0.16
0.00 0.00 0.00 0.00 0.00 0.00 0.00 0.00 0.00 0.00 0.00 0.00 0.00 0.00 0.00 0.00 0.00 0.00 0.00 0.00 0.00 0.00 0.00 0.00 0.00 0.00 0.00 0.00 0.00 0.00 0.00 0.00 0.00 0.00 0.00 0.00 0.00 0.00 0.00 0.00 0.00 0.01 0.05
0.00 0.00 0.00 0.00 0.00 0.00 0.00 0.00 0.00 0.00 0.00 0.00 0.00 0.00 0.00 0.00 0.00 0.00 0.00 0.00 0.00 0.00 0.00 0.00 0.00 0.00 0.00 0.00 0.00 0.00 0.00 0.00 0.00 0.00 0.00 0.00 0.00 0.00 0.00 0.00 0.00 0.00 0.00
0.00 0.00 0.00 0.00 0.00 0.00 0.00 0.00 0.00 0.00 0.00 0.00 0.00 0.00 0.00 0.00 0.00 0.00 0.00 0.00 0.00 0.00 0.00 0.00 0.00 0.00 0.00 0.00 0.00 0.00 0.00 0.00 0.00 0.00 0.00 0.00 0.00 0.01 0.01 0.00 0.00 0.00 0.00
0.00 0.00 0.00 0.00 0.00 0.00 0.00 0.00 0.00 0.00 0.00 0.00 0.00 0.00 0.00 0.00 0.00 0.00 0.00 0.00 0.00 0.00 0.00 0.00 0.00 0.00 0.00 0.00 0.00 0.00 0.00 0.00 0.00 0.00 0.00 0.00 0.00 0.01 0.02 0.01 0.00 0.00 0.00
0.00 0.00 0.00 0.00 0.00 0.00 0.00 0.00 0.00 0.00 0.00 0.00 0.00 0.00 0.00 0.00 0.00 0.00 0.00 0.00 0.00 0.00 0.00 0.00 0.00 0.00 0.00 0.00 0.00 0.00 0.00 0.00 0.00 0.00 0.00 0.00 0.00 0.00 0.02 0.03 0.01 0.01 0.00
0.00 0.00 0.00 0.00 0.00 0.00 0.00 0.00 0.00 0.00 0.00 0.00 0.00 0.00 0.00 0.00 0.00 0.00 0.00 0.00 0.00 0.00 0.00 0.00 0.00 0.00 0.00 0.00 0.00 0.00 0.00 0.00 0.00 0.00 0.00 0.00 0.00 0.00 0.02 0.03 0.04 0.05 0.02
0.00 0.00 0.00 0.00 0.00 0.00 0.00 0.00 0.00 0.00 0.00 0.00 0.00 0.00 0.00 0.00 0.00 0.00 0.00 0.00 0.00 0.00 0.00 0.00 0.00 0.00 0.00 0.00 0.00 0.00 0.00 0.00 0.00 0.00 0.00 0.00 0.00 0.00 0.00 0.02 0.04 0.07 0.05
0.00 0.00 0.00 0.00 0.00 0.00 0.00 0.00 0.00 0.00 0.00 0.00 0.00 0.00 0.00 0.00 0.00 0.00 0.00 0.00 0.00 0.00 0.00 0.00 0.00 0.00 0.00 0.00 0.00 0.00 0.00 0.00 0.00 0.00 0.00 0.00 0.00 0.00 0.00 0.00 0.01 0.04 0.05
0.00 0.00 0.00 0.00 0.00 0.00 0.00 0.00 0.00 0.00 0.00 0.00 0.00 0.00 0.00 0.00 0.00 0.00 0.00 0.00 0.00 0.00 0.00 0.00 0.00 0.00 0.00 0.00 0.00 0.00 0.00 0.00 0.00 0.00 0.00 0.01 0.02 0.02 0.03 0.04 0.03 0.02 0.03
0.00 0.00 0.00 0.00 0.00 0.00 0.00 0.00 0.00 0.00 0.00 0.00 0.00 0.00 0.00 0.00 0.00 0.00 0.00 0.00 0.00 0.00 0.00 0.00 0.00 0.00 0.00 0.00 0.00 0.00 0.00 0.00 0.00 0.00 0.01 0.01 0.04 0.06 0.07 0.09 0.06 0.05 0.04
0.00 0.00 0.00 0.00 0.00 0.00 0.00 0.00 0.00 0.00 0.00 0.00 0.00 0.00 0.00 0.00 0.00 0.00 0.00 0.00 0.00 0.00 0.00 0.00 0.00 0.00 0.00 0.00 0.00 0.00 0.00 0.00 0.00 0.00 0.00 0.01 0.04 0.04 0.03 0.06 0.06 0.04 0.06
0.00 0.00 0.00 0.00 0.00 0.00 0.00 0.00 0.00 0.00 0.00 0.00 0.00 0.00 0.00 0.00 0.00 0.00 0.00 0.00 0.00 0.00 0.00 0.00 0.00 0.00 0.00 0.00 0.00 0.00 0.00 0.00 0.00 0.00 0.01 0.01 0.02 0.01 0.05 0.12 0.10 0.11 0.12
0.00 0.00 0.00 0.00 0.00 0.00 0.00 0.00 0.00 0.00 0.00 0.00 0.00 0.00 0.00 0.00 0.00 0.00 0.00 0.00 0.00 0.00 0.00 0.00 0.00 0.00 0.01 0.01 0.00 0.00 0.00 0.00 0.00 0.01 0.04 0.04 0.06 0.08 0.12 0.09 0.07 0.09 0.06
0.00 0.00 0.00 0.00 0.00 0.00 0.00 0.00 0.00 0.00 0.00 0.00 0.00 0.00 0.00 0.00 0.00 0.00 0.00 0.00 0.00 0.00 0.00 0.00 0.00 0.00 0.00 0.02 0.01 0.00 0.00 0.00 0.00 0.00 0.00 0.01 0.02 0.03 0.05 0.08 0.07 0.06 0.02
0.00 0.00 0.00 0.00 0.00 0.00 0.00 0.00 0.00 0.00 0.00 0.00 0.00 0.00 0.00 0.00 0.00 0.00 0.00 0.00 0.00 0.00 0.00 0.00 0.00 0.00 0.00 0.01 0.01 0.00 0.00 0.00 0.00 0.00 0.00 0.00 0.01 0.01 0.01 0.01 0.00 0.01 0.00
0.00 0.00 0.00 0.00 0.00 0.00 0.00 0.00 0.00 0.00 0.00 0.00 0.00 0.00 0.00 0.00 0.00 0.00 0.00 0.00 0.00 0.00 0.00 0.00 0.00 0.00 0.00 0.00 0.00 0.00 0.00 0.00 0.00 0.00 0.00 0.00 0.00 0.00 0.00 0.00 0.00 0.00 0.00
0.00 0.00 0.00 0.00 0.00 0.00 0.00 0.00 0.00 0.00 0.00 0.00 0.00 0.00 0.00 0.00 0.00 0.00 0.00 0.00 0.00 0.00 0.00 0.00 0.00 0.00 0.00 0.00 0.01 0.00 0.00 0.01 0.01 0.00 0.00 0.00 0.00 0.01 0.01 0.00 0.01 0.00 0.00
0.00 0.00 0.00 0.00 0.00 0.00 0.00 0.00 0.00 0.00 0.00 0.00 0.00 0.00 0.00 0.00 0.00 0.00 0.00 0.00 0.00 0.00 0.00 0.00 0.00 0.00 0.00 0.00 0.00 0.00 0.00 0.01 0.01 0.01 0.01 0.01 0.00 0.00 0.00 0.00 0.00 0.00 0.00
0.00 0.00 0.00 0.00 0.00 0.00 0.00 0.00 0.00 0.00 0.00 0.00 0.00 0.00 0.00 0.00 0.00 0.00 0.00 0.00 0.00 0.00 0.00 0.00 0.00 0.00 0.00 0.00 0.00 0.01 0.00 0.01 0.01 0.01 0.01 0.01 0.02 0.01 0.01 0.01 0.00 0.01 0.01
0.00 0.00 0.00 0.00 0.00 0.00 0.00 0.00 0.00 0.00 0.00 0.00 0.00 0.00 0.00 0.00 0.00 0.00 0.00 0.00 0.00 0.00 0.00 0.00 0.00 0.00 0.00 0.00 0.00 0.00 0.00 0.01 0.00 0.01 0.01 0.02 0.02 0.01 0.01 0.01 0.02 0.02 0.02
0.00 0.00 0.00 0.00 0.00 0.00 0.00 0.00 0.00 0.00 0.00 0.00 0.00 0.00 0.00 0.00 0.00 0.00 0.00 0.00 0.00 0.00 0.00 0.00 0.00 0.00 0.00 0.00 0.00 0.00 0.00 0.00 0.00 0.00 0.01 0.01 0.01 0.00 0.01 0.03 0.05 0.05 0.05
0.00 0.00 0.00 0.00 0.00 0.00 0.00 0.00 0.00 0.00 0.00 0.00 0.00 0.00 0.00 0.00 0.00 0.00 0.00 0.00 0.00 0.00 0.00 0.00 0.00 0.00 0.00 0.00 0.00 0.00 0.00 0.00 0.00 0.00 0.00 0.00 0.00 0.00 0.00 0.00 0.00 0.01 0.03
0.00 0.00 0.00 0.00 0.00 0.00 0.00 0.00 0.00 0.00 0.00 0.00 0.00 0.00 0.00 0.00 0.00 0.00 0.00 0.00 0.00 0.00 0.00 0.00 0.00 0.00 0.00 0.00 0.00 0.00 0.00 0.00 0.00 0.00 0.00 0.00 0.00 0.00 0.00 0.00 0.00 0.00 0.00
0.00 0.00 0.00 0.00 0.00 0.00 0.00 0.00 0.00 0.00 0.00 0.00 0.00 0.00 0.00 0.00 0.00 0.00 0.00 0.00 0.00 0.00 0.00 0.00 0.00 0.00 0.00 0.00 0.00 0.00 0.00 0.00 0.00 0.00 0.00 0.00 0.00 0.00 0.00 0.00 0.00 0.00 0.00
MSLP
1019.83 1020.18 1020.48 1020.60 1020.61 1020.58 1020.48 1020.31 1020.18 1019.97 1019.74 1019.30 1018.84 1018.27 1017.99 1017.59 1017.05 1016.51 1016.32 1016.04 1015.70 1015.36 1015.00 1014.63 1014.39 1014.29 1014.14 1013.94 1013.90 1013.98 1013.93 1013.82 1013.93 1013.70 1013.19 1012.83 1012.66 1012.49 1012.58 1012.61 1012.51 1012.47 1011.96
1019.66 1019.89 1020.12 1020.31 1020.37 1020.34 1020.22 1020.06 1019.90 1019.79 1019.74 1019.53 1019.22 1018.94 1018.34 1017.49 1016.89 1016.21 1015.97 1015.73 1015.45 1015.08 1014.74 1014.35 1014.01 1013.71 1013.40 1013.32 1013.49 1013.60 1013.49 1013.35 1013.52 1013.19 1012.90 1012.08 1011.55 1011.33 1011.42 1011.51 1011.44 1011.31 1011.53
1019.34 1019.63 1019.87 1019.89 1020.02 1019.89 1019.81 1019.73 1019.65 1019.59 1019.54 1019.41 1019.05 1018.68 1018.23 1017.59 1016.85 1016.32 1015.87 1015.28 1015.04 1014.72 1014.37 1013.97 1013.74 1013.45 1013.33 1012.96 1012.91 1012.98 1012.99 1012.82 1012.79 1012.87 1012.60 1011.71 1010.62 1010.59 1010.46 1010.44 1010.45 1010.45 1010.72
1019.21 1019.45 1019.53 1019.56 1019.49 1019.38 1019.53 1019.55 1019.53 1019.52 1019.37 1019.24 1018.99 1018.68 1018.33 1017.78 1017.19 1016.72 1016.06 1015.37 1014.70 1014.28 1013.90 1013.57 1013.34 1013.13 1012.87 1012.72 1012.60 1012.68 1012.69 1012.68 1012.39 1012.56 1012.35 1011.78 1011.23 1010.67 1010.00 1010.10 1010.03 1010.04 1009.90
1019.02 1018.96 1019.07 1019.14 1019.10 1019.17 1019.23 1019.28 1019.37 1019.31 1019.24 1019.06 1018.89 1018.54 1018.15 1017.75 1017.13 1016.65 1016.06 1015.35 1014.65 1014.20 1013.47 1013.17 1013.01 1012.79 1012.51 1012.33 1012.08 1011.95 1011.99 1011.94 1011.89 1011.71 1011.68 1011.41 1011.04 1010.92 1010.57 1009.42 1009.21 1009.70 1009.47
1018.84 1018.95 1018.91 1018.95 1018.84 1018.93 1018.93 1019.01 1018.96 1018.83 1018.91 1018.85 1018.58 1018.44 1018.02 1017.59 1017.11 1016.48 1016.08 1015.38 1014.85 1014.20 1013.31 1012.84 1012.75 1012.48 1012.26 1012.07 1011.80 1011.75 1011.72 1011.66 1011.40 1011.32 1011.22 1011.03 1010.48 1010.03 1009.78 1009.20 1008.81 1008.55 1008.27
1018.81 1018.80 1018.76 1018.59 1018.44 1018.47 1018.55 1018.68 1018.63 1018.58 1018.71 1018.66 1018.46 1018.19 1017.81 1017.47 1016.88 1016.28 1015.69 1015.09 1014.51 1013.96 1013.45 1012.99 1012.47 1012.06 1011.82 1011.63 1011.51 1011.44 1011.30 1011.21 1011.07 1010.98 1010.81 1010.57 1010.18 1009.89 1009.44 1009.06 1008.33 1007.92 1007.67
1018.54 1018.64 1018.54 1018.39 1018.10 1018.11 1018.20 1018.35 1018.29 1018.26 1018.42 1018.50 1018.22 1017.86 1017.52 1017.12 1016.64 1016.15 1015.63 1015.06 1014.45 1013.87 1013.46 1012.96 1012.36 1011.79 1011.43 1011.14 1010.99 1010.92 1010.83 1010.77 1010.64 1010.50 1010.34 1010.10 1009.74 1009.48 1009.15 1008.80 1008.54 1007.90 1007.57
1018.36 1018.30 1018.13 1017.99 1017.71 1017.70 1017.78 1017.91 1018.07 1018.22 1018.24 1018.23 1017.98 1017.47 1017.11 1016.71 1016.51 1015.99 1015.45 1014.83 1014.22 1013.76 1013.12 1012.73 1012.28 1011.64 1011.15 1010.75 1010.56 1010.35 1010.08 1010.06 1009.86 1009.71 1009.45 1009.20 1008.93 1008.80 1008.53 1008.26 1008.02 1007.79 1007.16
1018.02 1017.89 1017.75 1017.50 1017.37 1017.42 1017.60 1017.75 1017.90 1017.92 1017.97 1017.91 1017.61 1017.06 1016.86 1016.67 1016.28 1015.65 1014.97 1014.42 1013.86 1013.31 1012.85 1012.36 1011.90 1011.31 1010.80 1010.35 1010.13 1009.81 1009.53 1009.40 1009.16 1008.99 1008.76 1008.46 1008.18 1007.90 1007.70 1007.47 1007.28 1007.05 1006.79
1017.88 1017.57 1017.32 1017.11 1017.04 1017.07 1017.26 1017.40 1017.54 1017.70 1017.72 1017.61 1017.33 1016.90 1016.76 1016.38 1015.83 1015.29 1014.73 1014.09 1013.48 1012.83 1012.38 1011.91 1011.41 1010.94 1010.50 1009.95 1009.60 1009.31 1009.09 1008.87 1008.53 1008.29 1008.05 1007.63 1007.37 1007.03 1006.87 1006.61 1006.35 1006.19 1006.02
1017.56 1017.14 1016.86 1016.68 1016.37 1016.36 1016.51 1016.68 1016.90 1017.07 1017.04 1017.15 1017.06 1016.77 1016.70 1016.14 1015.57 1014.95 1014.39 1013.80 1013.22 1012.66 1012.08 1011.61 1011.09 1010.58 1010.06 1009.71 1009.40 1009.01 1008.70 1008.43 1008.13 1007.72 1007.38 1006.86 1006.49 1006.14 1005.87 1005.71 1005.56 1005.41 1005.27
1016.83 1016.52 1016.35 1016.07 1015.82 1015.91 1016.21 1016.43 1016.57 1016.57 1016.57 1016.54 1016.62 1016.64 1016.37 1015.99 1015.66 1015.03 1014.34 1013.67 1013.15 1012.61 1012.21 1011.81 1011.19 1010.55 1010.00 1009.47 1009.29 1009.03 1008.65 1008.31 1007.89 1007.41 1006.99 1006.28 1005.89 1005.23 1004.82 1004.37 1004.34 1004.22 1004.17
1016.61 1016.25 1016.03 1015.89 1015.64 1015.51 1015.68 1015.94 1016.12 1016.14 1016.37 1016.63 1016.34 1016.12 1015.78 1015.65 1015.47 1015.00 1014.36 1013.81 1013.24 1012.71 1012.27 1011.79 1011.38 1010.81 1010.17 1009.61 1009.32 1009.04 1008.65 1008.20 1007.65 1007.12 1006.59 1005.86 1005.13 1004.38 1003.99 1003.69 1003.49 1003.50 1003.33
1016.01 1015.72 1015.41 1015.05 1014.85 1014.85 1015.01 1015.22 1015.33 1015.80 1016.17 1016.11 1016.16 1015.94 1015.68 1015.43 1015.21 1014.79 1014.34 1013.82 1013.36 1012.98 1012.59 1012.00 1011.49 1011.03 1010.42 1009.85 1009.47 1009.01 1008.53 1008.02 1007.35 1006.69 1006.08 1005.34 1004.51 1003.90 1003.74 1003.51 1002.89 1002.58 1002.55
1015.50 1015.17 1014.87 1014.76 1014.55 1014.46 1014.54 1014.78 1015.03 1015.41 1015.54 1015.59 1015.54 1015.45 1015.22 1014.86 1014.54 1014.31 1013.98 1013.59 1013.22 1012.93 1012.64 1012.18 1011.79 1011.28 1010.65 1010.24 1009.65 1009.00 1008.21 1007.58 1007.06 1006.32 1005.64 1004.99 1004.40 1003.63 1003.21 1003.09 1002.89 1002.93 1002.34
1014.88 1014.64 1014.35 1014.22 1014.00 1014.03 1014.22 1014.38 1014.65 1014.78 1015.13 1015.30 1015.33 1015.14 1014.90 1014.74 1014.45 1014.14 1013.84 1013.53 1013.22 1012.89 1012.45 1012.13 1011.81 1011.30 1010.76 1010.07 1009.35 1008.65 1007.77 1006.98 1006.60 1006.25 1005.60 1004.78 1004.09 1003.69 1003.26 1002.82 1002.61 1002.38 1002.37
1014.15 1013.90 1013.86 1013.63 1013.43 1013.55 1013.83 1014.10 1014.36 1014.46 1014.55 1014.53 1014.65 1014.73 1014.61 1014.42 1014.22 1014.07 1013.84 1013.57 1013.35 1013.01 1012.63 1012.24 1011.83 1011.40 1010.75 1010.02 1009.09 1008.04 1007.26 1006.56 1006.03 1006.00 1005.55 1004.95 1004.32 1003.86 1003.56 1003.03 1002.65 1002.59 1002.83
1013.54 1013.11 1012.91 1012.96 1012.83 1012.82 1013.07 1013.61 1014.05 1014.19 1014.25 1014.19 1014.09 1014.04 1014.11 1014.10 1014.04 1014.03 1013.90 1013.64 1013.34 1012.91 1012.53 1012.27 1011.84 1011.25 1010.52 1010.00 1009.03 1008.04 1007.16 1006.55 1006.31 1005.96 1005.77 1005.34 1004.86 1004.31 1003.74 1003.41 1003.09 1003.27 1003.56
1013.11 1012.91 1012.73 1012.65 1012.55 1012.16 1012.54 1013.05 1012.99 1013.60 1013.74 1013.48 1013.47 1013.77 1013.97 1013.86 1013.92 1013.99 1013.72 1013.42 1013.28 1012.91 1012.51 1012.21 1012.05 1011.56 1010.74 1009.87 1008.90 1008.15 1007.68 1006.97 1006.65 1006.68 1006.37 1006.04 1005.58 1004.97 1004.22 1003.43 1003.13 1003.33 1003.77
1012.45 1012.20 1012.20 1012.08 1011.71 1011.86 1012.26 1012.24 1012.25 1012.14 1011.78 1012.51 1012.90 1012.95 1013.17 1013.46 1013.53 1013.41 1013.52 1013.50 1012.99 1012.62 1012.43 1012.01 1011.62 1011.27 1010.87 1010.20 1009.19 1008.32 1007.95 1007.68 1007.43 1007.04 1006.82 1006.73 1006.34 1005.74 1005.19 1004.58 1004.15 1004.00 1004.14
1011.67 1011.48 1011.57 1011.20 1010.81 1011.16 1011.62 1011.57 1011.45 1010.86 1011.18 1011.36 1011.73 1012.18 1012.52 1012.72 1012.80 1013.02 1012.86 1012.72 1012.81 1012.56 1012.12 1011.66 1011.40 1011.13 1010.65 1010.15 1009.59 1009.02 1008.25 1007.88 1007.83 1007.69 1007.54 1007.26 1006.90 1006.51 1006.11 1005.79 1005.59 1005.39 1005.31
1010.98 1010.97 1010.96 1010.70 1010.37 1010.72 1011.13 1011.08 1010.25 1010.55 1010.66 1010.75 1010.93 1011.31 1011.65 1011.92 1012.09 1012.35 1012.41 1012.41 1012.08 1012.03 1011.87 1011.63 1011.39 1011.00 1010.59 1009.98 1009.61 1009.36 1009.08 1008.49 1007.97 1007.88 1007.84 1007.77 1007.33 1007.03 1006.88 1006.73 1006.51 1006.54 1006.59
1010.50 1010.20 1010.18 1010.11 1009.81 1009.90 1010.20 1010.34 1010.16 1010.32 1010.54 1010.46 1010.45 1010.68 1010.97 1011.29 1011.63 1011.67 1011.73 1011.75 1011.70 1011.50 1011.16 1010.90 1010.69 1010.71 1010.41 1009.99 1009.33 1009.27 1009.22 1008.98 1008.80 1008.34 1008.00 1007.87 1007.94 1007.81 1007.40 1007.16 1007.12 1007.03 1007.03
1010.21 1009.89 1009.61 1009.40 1009.03 1008.84 1008.87 1008.91 1009.05 1009.50 1009.86 1009.79 1009.89 1010.00 1010.18 1010.41 1010.66 1010.93 1010.93 1010.93 1010.89 1010.94 1010.87 1010.64 1010.30 1009.99 1009.80 1009.77 1009.51 1009.07 1008.95 1008.90 1008.69 1008.67 1008.42 1008.12 1008.01 1008.03 1008.08 1007.92 1007.64 1007.43 1007.44
1009.79 1009.40 1009.02 1008.79 1008.39 1008.18 1007.89 1007.65 1007.52 1007.89 1008.52 1008.70 1008.78 1008.89 1009.06 1009.23 1009.46 1009.89 1009.83 1009.80 1009.77 1009.77 1009.77 1009.84 1009.96 1009.97 1009.64 1009.27 1009.16 1009.20 1008.83 1008.73 1008.69 1008.71 1008.60 1008.51 1008.39 1008.38 1008.45 1008.26 1008.23 1008.29 1008.10
Thickness
5621 5618 5617 5617 5618 5619 5619 5620 5620 5622 5623 5625 5627 5629 5628 5628 5630 5632 5632 5632 5633 5634 5636 5639 5640 5639 5640 5643 5643 5642 5642 5644 5643 5643 5648 5653 5658 5660 5661 5664 5668 5664 5663
5610 5610 5610 5609 5609 5610 5611 5612 5612 5612 5611 5611 5612 5612 5613 5616 5617 5618 5617 5618 5619 5620 5622 5623 5625 5627 5629 5630 5628 5626 5627 5631 5630 5629 5630 5636 5646 5652 5655 5657 5661 5670 5668
5601 5602 5602 5603 5602 5604 5604 5603 5603 5601 5600 5599 5599 5600 5600 5601 5603 5603 5605 5605 5605 5605 5607 5608 5609 5610 5610 5614 5614 5612 5612 5615 5616 5613 5612 5619 5631 5636 5645 5648 5652 5655 5657
5587 5590 5594 5596 5597 5599 5595 5594 5592 5590 5589 5588 5587 5587 5586 5586 5586 5587 5589 5591 5592 5593 5595 5596 5596 5597 5598 5598 5599 5598 5597 5597 5601 5597 5598 5604 5611 5610 5620 5629 5635 5637 5644
5579 5585 5588 5589 5591 5590 5588 5586 5582 5582 5580 5579 5579 5577 5577 5577 5577 5578 5579 5581 5583 5583 5588 5588 5587 5588 5590 5589 5590 5589 5587 5586 5586 5586 5584 5586 5590 5591 5591 5608 5620 5617 5626
5571 5575 5579 5581 5584 5582 5580 5578 5577 5577 5574 5573 5572 5571 5571 5570 5569 5570 5568 5571 5571 5572 5576 5578 5578 5578 5578 5577 5578 5576 5574 5572 5572 5572 5570 5569 5573 5577 5577 5584 5595 5603 5614
5564 5570 5574 5577 5577 5578 5577 5574 5574 5572 5569 5567 5566 5567 5565 5563 5563 5562 5563 5565 5566 5565 5565 5565 5568 5570 5570 5570 5569 5566 5563 5561 5558 5555 5553 5552 5555 5556 5559 5563 5574 5579 5593
5561 5564 5569 5571 5574 5575 5575 5572 5570 5568 5564 5562 5564 5563 5562 5561 5559 5558 5558 5558 5558 5558 5557 5559 5562 5565 5564 5563 5560 5558 5554 5551 5546 5543 5539 5537 5537 5536 5539 5541 5546 5553 5561
5559 5563 5567 5570 5574 5574 5573 5571 5567 5564 5562 5561 5561 5562 5561 5560 5556 5555 5555 5555 5556 5555 5557 5556 5555 5557 5557 5556 5552 5549 5548 5542 5539 5532 5528 5525 5523 5519 5518 5520 5525 5530 5539
5562 5565 5568 5571 5572 5571 5569 5566 5564 5563 5560 5559 5560 5560 5559 5557 5554 5555 5556 5556 5556 5555 5552 5551 5550 5552 5551 5550 5547 5545 5542 5536 5530 5524 5519 5514 5508 5503 5500 5501 5504 5510 5519
5563 5566 5570 5571 5571 5570 5566 5564 5561 5558 5557 5556 5556 5556 5555 5554 5555 5555 5555 5554 5554 5553 5552 5549 5549 5547 5547 5547 5543 5540 5535 5527 5521 5515 5508 5502 5491 5481 5476 5478 5484 5492 5501
5565 5569 5571 5571 5572 5571 5568 5564 5560 5555 5554 5552 5552 5552 5550 5551 5551 5552 5552 5552 5552 5552 5551 5548 5548 5548 5547 5543 5538 5534 5528 5518 5512 5505 5498 5488 5474 5462 5454 5458 5469 5479 5490
5571 5571 5570 5572 5571 5568 5564 5560 5555 5551 5550 5550 5549 5548 5547 5547 5546 5547 5548 5548 5547 5547 5545 5543 5544 5543 5541 5537 5531 5525 5519 5509 5504 5497 5488 5477 5467 5461 5457 5467 5474 5482 5491
5566 5568 5567 5569 5568 5567 5562 5557 5552 5548 5544 5541 5543 5545 5546 5544 5542 5543 5543 5543 5543 5542 5540 5539 5537 5535 5534 5531 5526 5519 5511 5503 5497 5490 5482 5473 5468 5467 5470 5476 5481 5486 5492
5567 5568 5569 5572 5571 5568 5564 5559 5554 5547 5540 5537 5536 5537 5539 5539 5538 5538 5538 5538 5537 5535 5533 5531 5530 5527 5526 5525 5520 5515 5508 5500 5494 5489 5482 5475 5472 5472 5474 5479 5487 5493 5497
5570 5569 5569 5568 5567 5565 5561 5556 5551 5546 5540 5536 5535 5535 5536 5536 5536 5534 5534 5533 5531 5529 5526 5524 5522 5519 5518 5514 5512 5510 5507 5501 5494 5488 5485 5480 5475 5477 5479 5481 5485 5485 5497
5573 5572 5571 5568 5566 5563 5558 5554 5549 5544 5538 5533 5531 5531 5531 5530 5529 5528 5527 5524 5523 5522 5521 5518 5515 5513 5511 5510 5509 5508 5507 5505 5498 5491 5486 5485 5482 5480 5480 5483 5486 5489 5491
5571 5571 5570 5569 5569 5564 5557 5551 5545 5541 5538 5535 5531 5528 5527 5526 5523 5521 5519 5517 5514 5512 5510 5509 5506 5504 5504 5504 5506 5509 5508 5507 5502 5494 5490 5487 5484 5482 5480 5483 5486 5487 5486
5570 5571 5570 5567 5566 5564 5558 5549 5542 5537 5533 5532 5529 5525 5521 5519 5516 5513 5510 5508 5506 5505 5504 5501 5498 5497 5499 5498 5502 5504 5505 5504 5499 5495 5489 5485 5483 5481 5481 5481 5483 5479 5476
5561 5562 5562 5560 5558 5560 5553 5545 5544 5534 5530 5529 5526 5520 5515 5512 5508 5504 5502 5501 5498 5497 5495 5494 5490 5488 5491 5493 5497 5499 5497 5497 5493 5488 5484 5480 5478 5479 5480 5484 5485 5480 5474
5562 5560 5555 5555 5555 5548 5543 5542 5540 5536 5541 5527 5520 5517 5512 5505 5501 5498 5495 5491 5492 5491 5489 5490 5488 5486 5484 5485 5489 5492 5490 5487 5483 5481 5478 5474 5473 5473 5473 5474 5474 5473 5469
5556 5554 5550 5552 5551 5542 5535 5536 5533 5536 5532 5526 5519 5512 5506 5500 5496 5490 5488 5486 5482 5482 5483 5483 5483 5480 5480 5479 5479 5480 5483 5481 5477 5473 5470 5467 5466 5465 5465 5464 5463 5461 5459
5550 5546 5542 5543 5541 5531 5526 5525 5529 5522 5520 5516 5512 5505 5499 5494 5489 5484 5481 5478 5477 5475 5473 5473 5471 5471 5472 5473 5471 5470 5468 5470 5470 5467 5463 5460 5460 5458 5455 5454 5453 5450 5447
5542 5539 5534 5532 5531 5526 5519 5515 5515 5508 5501 5500 5498 5493 5487 5482 5476 5475 5473 5469 5468 5467 5468 5467 5465 5461 5461 5461 5466 5462 5458 5457 5456 5456 5456 5453 5450 5448 5448 5446 5443 5442 5441
5530 5528 5527 5525 5524 5522 5517 5513 5507 5498 5491 5489 5484 5481 5477 5472 5467 5461 5458 5458 5457 5456 5454 5453 5453 5454 5453 5451 5451 5453 5451 5448 5447 5445 5445 5444 5442 5440 5437 5435 5435 5434 5432
5521 5518 5517 5514 5515 5512 5511 5509 5504 5496 5488 5483 5477 5473 5468 5464 5459 5453 5452 5450 5448 5445 5443 5440 5437 5436 5438 5440 5440 5437 5439 5437 5435 5433 5432 5431 5429 5427 5425 5425 5424 5421 5420